Weather History for Abingdon, VA

Change the Weather History Date:

Friday, March 8, 2013

  Actual Average (KTRI) Record (KTRI)
Temperature  
Mean Temperature 36 °F 44 °F  
Max Temperature 44 °F 57 °F 78 °F (2000)
Min Temperature 30 °F 33 °F 9 °F (1960)
Degree Days  
Heating Degree Days 28 20  
Month to date heating degree days 171  
Since 1 July heating degree days 3553  
Cooling Degree Days 0 0  
Month to date cooling degree days 0  
Year to date cooling degree days 0  
Moisture  
Dew Point 27 °F    
Average Humidity 72    
Maximum Humidity 88    
Minimum Humidity 53    
Precipitation  
Precipitation 0.00 in 0.11 in 1.53 in (1995)
Month to date precipitation 0.89  
Year to date precipitation 7.71  
Snow  
Snow 0.00 in 0.10 in - ()
Month to date snowfall 0.5  
Since 1 July snowfall 11.3  
Snow Depth -    
Sea Level Pressure  
Sea Level Pressure 30.30 in    
Wind  
Wind Speed 3 mph (North)    
Max Wind Speed 9 mph    
Max Gust Speed 18 mph    
Visibility 10 miles    
Events      
T = Trace of Precipitation, MM = Missing Value Source: NWS Daily Summary

Daily Weather History Graph

Daily Weather History Graph

Search for Another Location

Airport:

Trip Planner

Search our weather history database for the weather conditions in past years. The results will help you decide how hot, cold, wet, or windy it might be!

Date:

Astronomy

Mar. 08, 2013 Rise Set
Actual Time 6:48 AM EST 6:29 PM EST
Civil Twilight 6:22 AM EST 6:55 PM EST
Nautical Twilight 5:53 AM EST 7:25 PM EST
Astronomical Twilight 5:23 AM EST 7:55 PM EST
Moon 4:27 AM EST (3/8) 3:26 PM EST (3/8)
Length of Visible Light 12h 32m
Length of Day
11h 40m
Waning Crescent, 12% of the Moon is Illuminated
Mar 8
Waning Crescent
Mar 11
New
Mar 19
First Quarter
Mar 27
Full
Apr 3
Last Quarter

Hourly Weather History & Observations

Time (EST) Temp. Windchill Dew Point Humidity Pressure Visibility Wind Dir Wind Speed Gust Speed Precip Events Conditions
12:15 AM 32.9 °F - 25.7 °F 75% 30.28 in 10.0 mi Calm Calm - N/A   Overcast
12:35 AM 32.9 °F - 25.7 °F 75% 30.28 in 10.0 mi Calm Calm - N/A   Overcast
1:15 AM 32.5 °F - 25.2 °F 74% 30.27 in 10.0 mi Calm Calm - N/A   Overcast
1:35 AM 32.4 °F - 25.3 °F 75% 30.27 in 10.0 mi Calm Calm - N/A   Overcast
1:55 AM 32.2 °F 28.9 °F 25.5 °F 76% 30.28 in 10.0 mi NW 3.5 mph - N/A   Overcast
2:15 AM 32.0 °F 28.7 °F 26.1 °F 79% 30.28 in 10.0 mi North 3.5 mph - N/A   Overcast
2:35 AM 32.0 °F - 26.4 °F 80% 30.26 in 10.0 mi Calm Calm - N/A   Mostly Cloudy
2:55 AM 32.0 °F - 25.5 °F 77% 30.25 in 10.0 mi Calm Calm - N/A   Scattered Clouds
3:15 AM 31.6 °F - 25.9 °F 79% 30.25 in 10.0 mi Calm Calm - N/A   Mostly Cloudy
3:35 AM 31.1 °F 26.4 °F 26.1 °F 82% 30.25 in 10.0 mi NW 4.6 mph - N/A   Overcast
3:55 AM 31.3 °F 27.9 °F 26.2 °F 82% 30.26 in 10.0 mi NNW 3.5 mph - N/A   Overcast
4:15 AM 31.3 °F 27.9 °F 26.6 °F 83% 30.26 in 10.0 mi NNW 3.5 mph - N/A   Overcast
4:35 AM 31.8 °F 23.9 °F 26.2 °F 80% 30.27 in 10.0 mi North 9.2 mph - N/A   Mostly Cloudy
4:55 AM 31.8 °F 26.2 °F 26.1 °F 79% 30.28 in 10.0 mi North 5.8 mph - N/A   Mostly Cloudy
5:15 AM 31.6 °F 26.0 °F 25.7 °F 79% 30.27 in 10.0 mi North 5.8 mph - N/A   Overcast
5:35 AM 31.6 °F 25.1 °F 26.1 °F 80% 30.28 in 10.0 mi North 6.9 mph - N/A   Overcast
5:55 AM 31.5 °F 28.1 °F 25.7 °F 79% 30.28 in 10.0 mi North 3.5 mph - N/A   Overcast
6:15 AM 31.3 °F 25.6 °F 25.7 °F 80% 30.28 in 10.0 mi NNW 5.8 mph - N/A   Overcast
6:35 AM 31.1 °F 27.7 °F 25.7 °F 80% 30.29 in 10.0 mi NNW 3.5 mph - N/A   Mostly Cloudy
6:55 AM 31.1 °F - 25.9 °F 81% 30.30 in 10.0 mi Calm Calm - N/A   Mostly Cloudy
7:15 AM 31.5 °F - 26.4 °F 82% 30.31 in 10.0 mi Calm Calm - N/A   Overcast
7:35 AM 32.0 °F 26.4 °F 26.4 °F 80% 30.32 in 5.0 mi North 5.8 mph - N/A   Haze
7:55 AM 32.0 °F 27.5 °F 26.1 °F 79% 30.34 in 10.0 mi NW 4.6 mph - N/A   Overcast
8:15 AM 32.4 °F 27.9 °F 26.1 °F 78% 30.34 in 10.0 mi NNW 4.6 mph - N/A   Overcast
8:35 AM 32.4 °F 29.1 °F 26.4 °F 79% 30.34 in 10.0 mi NNE 3.5 mph - N/A   Overcast
8:55 AM 33.3 °F 28.9 °F 26.6 °F 77% 30.33 in 10.0 mi East 4.6 mph - N/A   Overcast
9:15 AM 34.2 °F 31.2 °F 25.9 °F 72% 30.33 in 10.0 mi East 3.5 mph - N/A   Overcast
9:35 AM 35.6 °F 29.9 °F 27.5 °F 72% 30.33 in 10.0 mi NE 6.9 mph - N/A   Overcast
9:55 AM 36.0 °F 31.1 °F 27.0 °F 70% 30.33 in 10.0 mi East 5.8 mph - N/A   Mostly Cloudy
10:15 AM 36.0 °F 31.1 °F 26.6 °F 69% 30.34 in 10.0 mi North 5.8 mph - N/A   Overcast
10:35 AM 36.5 °F - 26.4 °F 67% 30.34 in 10.0 mi Calm Calm - N/A   Overcast
10:55 AM 36.5 °F 33.9 °F 27.1 °F 69% 30.34 in 10.0 mi NNE 3.5 mph - N/A   Overcast
11:15 AM 36.9 °F 34.3 °F 27.1 °F 68% 30.34 in 10.0 mi NNE 3.5 mph - N/A   Overcast
11:35 AM 37.9 °F 32.7 °F 27.7 °F 67% 30.34 in 10.0 mi North 6.9 mph - N/A   Overcast
11:55 AM 39.0 °F 33.4 °F 28.2 °F 65% 30.34 in 10.0 mi NNW 8.1 mph - N/A   Overcast
12:15 PM 38.3 °F 33.9 °F 27.7 °F 66% 30.33 in 10.0 mi NNE 5.8 mph - N/A   Scattered Clouds
12:35 PM 39.0 °F 34.8 °F 27.9 °F 64% 30.32 in 10.0 mi NW 5.8 mph - N/A   Scattered Clouds
12:55 PM 39.7 °F 36.5 °F 27.5 °F 62% 30.32 in 10.0 mi ENE 4.6 mph - N/A   Scattered Clouds
1:15 PM 40.1 °F - 26.1 °F 57% 30.31 in 10.0 mi Calm Calm - N/A   Scattered Clouds
1:35 PM 40.5 °F 35.1 °F 27.1 °F 59% 30.30 in 10.0 mi North 8.1 mph - N/A   Scattered Clouds
1:55 PM 41.7 °F 38.8 °F 28.2 °F 59% 30.30 in 10.0 mi North 4.6 mph - N/A   Clear
2:15 PM 41.2 °F 35.5 °F 27.9 °F 59% 30.30 in 10.0 mi NNW 9.2 mph - N/A   Scattered Clouds
2:35 PM 43.0 °F 37.7 °F 28.2 °F 56% 30.30 in 10.0 mi NNW 9.2 mph - N/A   Scattered Clouds
2:55 PM 42.4 °F 38.1 °F 27.3 °F 55% 30.30 in 10.0 mi North 6.9 mph - N/A   Clear
3:15 PM 42.4 °F 39.6 °F 26.6 °F 54% 30.31 in 10.0 mi North 4.6 mph - N/A   Clear
3:35 PM 43.9 °F 42.3 °F 28.4 °F 55% 30.31 in 10.0 mi North 3.5 mph 18.4 mph N/A   Scattered Clouds
3:55 PM 43.5 °F 40.9 °F 27.7 °F 54% 30.31 in 10.0 mi North 4.6 mph - N/A   Clear
4:15 PM 43.7 °F 39.7 °F 27.7 °F 53% 30.31 in 10.0 mi NW 6.9 mph - N/A   Clear
4:35 PM 43.9 °F 39.3 °F 28.6 °F 55% 30.31 in 10.0 mi NNW 8.1 mph - N/A   Clear
4:55 PM 43.2 °F 40.5 °F 28.0 °F 55% 30.29 in 10.0 mi North 4.6 mph - N/A   Clear
5:15 PM 43.3 °F - 28.4 °F 56% 30.29 in 10.0 mi Calm Calm - N/A   Clear
5:35 PM 43.0 °F - 28.4 °F 56% 30.28 in 10.0 mi Calm Calm - N/A   Clear
5:55 PM 42.4 °F 40.7 °F 27.9 °F 56% 30.29 in 10.0 mi NE 3.5 mph - N/A   Clear
6:15 PM 41.0 °F 37.1 °F 28.2 °F 60% 30.29 in 10.0 mi ENE 5.8 mph - N/A   Clear
6:35 PM 39.6 °F 36.3 °F 28.0 °F 63% 30.28 in 10.0 mi East 4.6 mph - N/A   Clear
6:55 PM 39.4 °F 37.2 °F 28.0 °F 64% 30.29 in 10.0 mi ENE 3.5 mph - N/A   Clear
7:15 PM 38.1 °F - 28.2 °F 68% 30.30 in 10.0 mi Calm Calm - N/A   Clear
7:35 PM 37.0 °F - 28.4 °F 71% 30.31 in 10.0 mi Calm Calm - N/A   Clear
7:55 PM 37.9 °F - 27.9 °F 67% 30.31 in 10.0 mi Calm Calm - N/A   Clear
8:15 PM 37.6 °F - 27.9 °F 68% 30.31 in 10.0 mi Calm Calm - N/A   Clear
8:35 PM 33.3 °F - 28.0 °F 81% 30.31 in 10.0 mi Calm Calm - N/A   Clear
8:55 PM 33.8 °F - 28.2 °F 80% 30.32 in 10.0 mi Calm Calm - N/A   Clear
9:15 PM 32.2 °F - 28.2 °F 85% 30.34 in 10.0 mi Calm Calm - N/A   Clear
9:35 PM 32.2 °F - 28.4 °F 86% 30.35 in 10.0 mi Calm Calm - N/A   Clear
9:55 PM 32.0 °F - 28.0 °F 85% 30.35 in 10.0 mi Calm Calm - N/A   Clear
10:15 PM 31.5 °F - 27.7 °F 86% 30.35 in 10.0 mi Calm Calm - N/A   Clear
10:35 PM 31.1 °F 26.4 °F 27.9 °F 88% 30.34 in 10.0 mi East 4.6 mph - N/A   Clear
10:55 PM 30.7 °F 24.1 °F 27.3 °F 87% 30.32 in 10.0 mi East 6.9 mph - N/A   Clear
11:15 PM 31.8 °F 27.3 °F 28.2 °F 87% 30.32 in 10.0 mi East 4.6 mph - N/A   Clear
11:35 PM 32.2 °F 24.4 °F 28.0 °F 85% 30.31 in 10.0 mi East 9.2 mph - N/A   Clear
11:55 PM 31.6 °F 26.0 °F 28.0 °F 87% 30.30 in 10.0 mi East 5.8 mph - N/A   Clear